IRIDIUM 33 DEB, 37548

Orbit data source: Space-Track

IRIDIUM 33 DEB, 37548 is space debris in LEO originally from a launch on Sun, 14 Sep 1997 UTC launched from the Tyuratam Missile And Space Complex (TTMTR). The debris from Iridium 33, an American commercial communications satellite, has been tracked extensively since its accidental collision with the defunct Russian satellite Cosmos 2251 in 2009. This event, occurring at high speed in low Earth orbit (LEO), generated thousands of pieces of space debris, significantly increasing the risk of further collisions. The Iridium 33 debris cloud has impacted space traffic management and orbital debris mitigation strategies, making it a subject of ongoing study in space situational awareness.

Loading next visibility...
Identifier
37548, 1997-051XH
Orbit
LEO
Country
Flag of USUS
Related business
Manufacturer
Unknown
Mission
Spacecraft
Bus & Motor
Unknown
Mass
Unknown
Launch date (UTC)
1997-09-14 (28 years ago)
Launch vehicle
Unknown
Launch site
Tyuratam Missile And Space Complex (TTMTR)
Object type
Payload
Rocket body
Debris
Shape & HBR
Unknown shape, 0.1 m
Radar Cross Section
Small (<0.1 m²)

Expand to show TLE details & history
Last TLE update: 17 hours ago

TLE from 17 hours ago
0 IRIDIUM 33 DEB
1 37548U 97051XH  25342.89698106  .00005175  00000-0  12917-2 0  9992
2 37548  86.3517  45.0407 0025132 201.7474 158.2667 14.51252553654763
Epoch: 2025-12-08T21:31Z
TLE epoch observation values (Epoch: 2025-12-08T21:31:39.163Z)
Latitude
0.00001°
Longitude
4.23809°
Altitude
741.219 km
Speed
7.475 km/s
True Right ascension
03h 00m 09s
True Declination
0° 00' 00"
Sunlit
Object was in full shadow at epoch
Visualization orbit readout
Latitude
Unknown
Longitude
Unknown
Altitude
Unknown
Speed
Unknown
Apparent Right ascension
Unknown
Apparent Declination
Unknown
Sunlit
N/A
Visualization observer readout
Local Sidereal Time
12:46:41
Azimuth
Unknown
Elevation
Unknown
Doppler factor
Unknown
Orbital elements
Apogee altitude
736.337 km
Perigee altitude
700.667 km
Semi-major axis
7,096.639 km
Eccentricity
0.00251
Inclination
86.3517°
RAAN
45.0407°
Arg. of periapsis
201.7474°
True anomaly
158.37303°
Mean anomaly
158.2667°
Eccentric anomaly
158.3199°
Mean motion
3.63048 °/min
Orbital period
99.16 mins
BSTAR
0.0012917
Loading maneuver chart data...
Computing Atmospheric mass density...

Documentation

Showing up to 5 results
|